Time,TemperatureF,DewpointF,PressureIn,WindDirection,WindDirectionDegrees,WindSpeedMPH,WindSpeedGustMPH,Humidity,HourlyPrecipIn,Conditions,Clouds,dailyrainin,SoftwareType,DateUTC
2013-09-20 00:06:00,57.6,48.2,30.29,North,0,0.0,0.0,71,0.00,,,0.00,WUHU21636XXSP,2013-09-20 05:06:00,
2013-09-20 00:16:00,57.6,48.2,30.29,North,0,0.0,0.0,71,0.00,,,0.00,WUHU21636XXSP,2013-09-20 05:16:00,
2013-09-20 00:26:00,57.4,48.0,30.29,North,0,0.0,0.0,72,0.00,,,0.00,WUHU21636XXSP,2013-09-20 05:26:00,
2013-09-20 00:37:00,57.2,48.2,30.29,North,0,0.0,0.0,72,0.00,,,0.00,WUHU21636XXSP,2013-09-20 05:37:00,
2013-09-20 00:47:00,57.0,48.0,30.29,North,0,0.0,0.0,72,0.00,,,0.00,WUHU21636XXSP,2013-09-20 05:47:00,
2013-09-20 00:57:00,56.8,47.8,30.29,North,0,0.0,0.0,72,0.00,,,0.00,WUHU21636XXSP,2013-09-20 05:57:00,
2013-09-20 01:07:00,56.1,47.5,30.30,North,0,0.0,0.0,73,0.00,,,0.00,WUHU21636XXSP,2013-09-20 06:07:00,
2013-09-20 01:17:00,55.9,47.7,30.30,NNW,337,3.5,3.5,74,0.00,,,0.00,WUHU21636XXSP,2013-09-20 06:17:00,
2013-09-20 01:27:00,55.6,48.0,30.30,NW,315,5.3,5.8,76,0.00,,,0.00,WUHU21636XXSP,2013-09-20 06:27:00,
2013-09-20 01:37:00,55.2,47.7,30.30,NW,315,0.0,5.3,77,0.00,,,0.00,WUHU21636XXSP,2013-09-20 06:37:00,
2013-09-20 01:47:00,55.2,48.0,30.30,NW,315,1.3,6.9,77,0.00,,,0.00,WUHU21636XXSP,2013-09-20 06:47:00,
2013-09-20 01:57:00,55.2,48.0,30.30,NW,315,2.0,3.3,77,0.00,,,0.00,WUHU21636XXSP,2013-09-20 06:57:00,
2013-09-20 02:07:00,55.0,47.8,30.30,NW,315,1.7,3.3,77,0.00,,,0.00,WUHU21636XXSP,2013-09-20 07:07:00,
2013-09-20 02:17:00,55.0,47.8,30.29,NNW,337,3.5,3.5,77,0.00,,,0.00,WUHU21636XXSP,2013-09-20 07:17:00,
2013-09-20 02:27:00,54.9,47.7,30.29,NNW,337,3.5,4.0,77,0.00,,,0.00,WUHU21636XXSP,2013-09-20 07:27:00,
2013-09-20 02:37:00,55.0,47.8,30.29,NNW,337,0.0,3.5,77,0.00,,,0.00,WUHU21636XXSP,2013-09-20 07:37:00,
2013-09-20 02:47:00,55.0,47.8,30.29,North,0,4.0,6.7,77,0.00,,,0.00,WUHU21636XXSP,2013-09-20 07:47:00,
2013-09-20 02:57:00,55.0,47.8,30.29,North,0,3.3,4.0,77,0.00,,,0.00,WUHU21636XXSP,2013-09-20 07:57:00,
2013-09-20 03:07:00,54.7,47.5,30.29,NNE,22,3.3,4.2,77,0.00,,,0.00,WUHU21636XXSP,2013-09-20 08:07:00,
2013-09-20 03:17:00,54.0,47.1,30.29,NNE,22,4.9,5.5,78,0.00,,,0.00,WUHU21636XXSP,2013-09-20 08:17:00,
2013-09-20 03:27:00,53.1,46.8,30.29,North,0,4.4,10.2,79,0.00,,,0.00,WUHU21636XXSP,2013-09-20 08:27:00,
2013-09-20 03:37:00,52.9,46.9,30.29,North,0,4.4,6.4,80,0.00,,,0.00,WUHU21636XXSP,2013-09-20 08:37:00,
2013-09-20 03:47:00,53.2,46.9,30.29,NNE,22,4.6,4.6,79,0.00,,,0.00,WUHU21636XXSP,2013-09-20 08:47:00,
2013-09-20 03:57:00,53.2,46.9,30.29,NNE,22,0.6,4.9,79,0.00,,,0.00,WUHU21636XXSP,2013-09-20 08:57:00,
2013-09-20 04:07:00,53.2,46.9,30.28,NNE,22,1.7,2.6,78,0.00,,,0.00,WUHU21636XXSP,2013-09-20 09:07:00,
2013-09-20 04:17:00,52.9,46.2,30.29,NNE,22,3.5,4.4,78,0.00,,,0.00,WUHU21636XXSP,2013-09-20 09:17:00,
2013-09-20 04:27:00,53.2,46.6,30.29,NNE,22,0.0,3.5,78,0.00,,,0.00,WUHU21636XXSP,2013-09-20 09:27:00,
2013-09-20 04:37:00,52.9,45.9,30.28,NNE,22,0.0,0.0,77,0.00,,,0.00,WUHU21636XXSP,2013-09-20 09:37:00,
2013-09-20 04:47:00,52.7,45.7,30.28,NNE,22,4.0,4.0,77,0.00,,,0.00,WUHU21636XXSP,2013-09-20 09:47:00,
2013-09-20 04:57:00,52.7,45.3,30.28,North,0,2.0,4.4,76,0.00,,,0.00,WUHU21636XXSP,2013-09-20 09:57:00,
2013-09-20 05:07:00,52.5,44.8,30.29,NNE,22,0.0,2.9,75,0.00,,,0.00,WUHU21636XXSP,2013-09-20 10:07:00,
2013-09-20 05:17:00,52.5,44.8,30.29,NNE,22,0.0,0.0,75,0.00,,,0.00,WUHU21636XXSP,2013-09-20 10:17:00,
2013-09-20 05:27:00,52.2,44.4,30.28,NNE,22,0.0,0.8,75,0.00,,,0.00,WUHU21636XXSP,2013-09-20 10:27:00,
2013-09-20 05:37:00,52.0,44.2,30.29,NNE,22,0.0,0.0,75,0.00,,,0.00,WUHU21636XXSP,2013-09-20 10:37:00,
2013-09-20 05:47:00,51.6,43.9,30.29,NNE,22,0.0,0.0,75,0.00,,,0.00,WUHU21636XXSP,2013-09-20 10:47:00,
2013-09-20 05:57:00,51.1,43.7,30.29,NNE,22,0.0,0.0,76,0.00,,,0.00,WUHU21636XXSP,2013-09-20 10:57:00,
2013-09-20 06:07:00,50.9,43.5,30.29,NNE,22,0.0,0.0,77,0.00,,,0.00,WUHU21636XXSP,2013-09-20 11:07:00,
2013-09-20 06:17:00,50.7,43.3,30.30,NNE,22,0.0,0.0,76,0.00,,,0.00,WUHU21636XXSP,2013-09-20 11:17:00,
2013-09-20 06:27:00,50.5,43.2,30.30,NNE,22,0.0,0.0,76,0.00,,,0.00,WUHU21636XXSP,2013-09-20 11:27:00,
2013-09-20 06:37:00,50.2,43.2,30.30,NNE,22,0.0,0.0,77,0.00,,,0.00,WUHU21636XXSP,2013-09-20 11:37:00,
2013-09-20 06:47:00,50.2,43.2,30.30,NNE,22,0.0,0.0,77,0.00,,,0.00,WUHU21636XXSP,2013-09-20 11:47:00,
2013-09-20 07:05:00,49.3,42.6,30.31,NNE,22,0.0,0.0,78,0.00,,,0.00,WUHU21636XXSP,2013-09-20 12:05:00,
2013-09-20 07:15:00,48.9,42.6,30.31,NNE,22,0.0,0.0,79,0.00,,,0.00,WUHU21636XXSP,2013-09-20 12:15:00,
2013-09-20 07:26:00,48.9,42.6,30.31,NNE,22,0.0,0.0,79,0.00,,,0.00,WUHU21636XXSP,2013-09-20 12:26:00,
2013-09-20 07:36:00,49.1,42.8,30.31,NNE,22,0.0,0.0,79,0.00,,,0.00,WUHU21636XXSP,2013-09-20 12:36:00,
2013-09-20 07:46:00,49.3,43.0,30.32,NNE,22,0.0,0.0,79,0.00,,,0.00,WUHU21636XXSP,2013-09-20 12:46:00,
2013-09-20 07:56:00,49.3,43.0,30.31,North,0,0.0,3.1,79,0.00,,,0.00,WUHU21636XXSP,2013-09-20 12:56:00,
2013-09-20 08:06:00,49.3,43.0,30.32,North,0,0.0,1.1,79,0.00,,,0.00,WUHU21636XXSP,2013-09-20 13:06:00,
2013-09-20 08:16:00,49.3,43.0,30.31,North,0,1.7,1.7,79,0.00,,,0.00,WUHU21636XXSP,2013-09-20 13:16:00,
2013-09-20 08:26:00,49.6,43.3,30.31,North,0,0.0,1.7,79,0.00,,,0.00,WUHU21636XXSP,2013-09-20 13:26:00,
2013-09-20 08:36:00,49.6,43.3,30.31,North,0,0.0,0.0,79,0.00,,,0.00,WUHU21636XXSP,2013-09-20 13:36:00,
2013-09-20 08:46:00,49.8,43.2,30.31,North,0,0.0,0.0,79,0.00,,,0.00,WUHU21636XXSP,2013-09-20 13:46:00,
2013-09-20 08:56:00,50.4,43.7,30.31,North,0,0.0,0.0,78,0.00,,,0.00,WUHU21636XXSP,2013-09-20 13:56:00,
2013-09-20 09:06:00,50.7,44.4,30.31,North,0,0.0,0.0,79,0.00,,,0.00,WUHU21636XXSP,2013-09-20 14:06:00,
2013-09-20 09:16:00,51.1,44.4,30.31,North,0,0.0,0.0,77,0.00,,,0.00,WUHU21636XXSP,2013-09-20 14:16:00,
2013-09-20 09:26:00,51.6,44.6,30.31,North,0,0.0,0.8,77,0.00,,,0.00,WUHU21636XXSP,2013-09-20 14:26:00,
2013-09-20 09:36:00,52.0,44.6,30.32,North,0,0.0,0.0,76,0.00,,,0.00,WUHU21636XXSP,2013-09-20 14:36:00,
2013-09-20 09:46:00,52.3,45.0,30.32,North,0,3.1,3.1,76,0.00,,,0.00,WUHU21636XXSP,2013-09-20 14:46:00,
2013-09-20 09:56:00,52.9,45.1,30.32,North,0,0.0,3.1,75,0.00,,,0.00,WUHU21636XXSP,2013-09-20 14:56:00,
2013-09-20 10:06:00,53.4,45.3,30.32,North,0,0.0,0.0,74,0.00,,,0.00,WUHU21636XXSP,2013-09-20 15:06:00,
2013-09-20 10:16:00,53.8,45.5,30.32,North,0,0.0,3.5,74,0.00,,,0.00,WUHU21636XXSP,2013-09-20 15:16:00,
2013-09-20 10:26:00,54.5,45.5,30.32,North,0,0.0,2.4,72,0.00,,,0.00,WUHU21636XXSP,2013-09-20 15:26:00,
2013-09-20 10:36:00,55.0,46.0,30.32,North,0,0.0,0.0,71,0.00,,,0.00,WUHU21636XXSP,2013-09-20 15:36:00,
2013-09-20 10:46:00,55.8,46.0,30.32,North,0,2.4,4.4,70,0.00,,,0.00,WUHU21636XXSP,2013-09-20 15:46:00,
2013-09-20 10:56:00,56.3,45.3,30.32,North,0,0.6,2.4,67,0.00,,,0.00,WUHU21636XXSP,2013-09-20 15:56:00,
2013-09-20 11:06:00,56.7,45.7,30.32,North,0,0.0,0.6,65,0.00,,,0.00,WUHU21636XXSP,2013-09-20 16:06:00,
2013-09-20 11:16:00,57.6,45.7,30.32,North,0,0.0,0.0,65,0.00,,,0.00,WUHU21636XXSP,2013-09-20 16:16:00,
2013-09-20 11:26:00,58.3,47.3,30.31,North,0,3.3,3.3,67,0.00,,,0.00,WUHU21636XXSP,2013-09-20 16:26:00,
2013-09-20 11:36:00,58.8,46.9,30.31,NNW,337,0.0,3.3,65,0.00,,,0.00,WUHU21636XXSP,2013-09-20 16:36:00,
2013-09-20 11:46:00,59.5,46.4,30.31,West,270,2.4,2.4,63,0.00,,,0.00,WUHU21636XXSP,2013-09-20 16:46:00,
2013-09-20 11:56:00,60.6,47.5,30.31,WSW,247,0.0,4.9,62,0.00,,,0.00,WUHU21636XXSP,2013-09-20 16:56:00,
2013-09-20 12:06:00,61.3,48.9,30.30,SSW,202,2.2,2.2,64,0.00,,,0.00,WUHU21636XXSP,2013-09-20 17:06:00,
2013-09-20 12:16:00,62.4,48.7,30.29,WSW,247,2.2,2.2,61,0.00,,,0.00,WUHU21636XXSP,2013-09-20 17:16:00,
2013-09-20 12:26:00,63.3,49.1,30.29,West,270,4.6,4.6,60,0.00,,,0.00,WUHU21636XXSP,2013-09-20 17:26:00,
2013-09-20 12:36:00,63.7,49.5,30.29,SSW,202,0.0,4.6,60,0.00,,,0.00,WUHU21636XXSP,2013-09-20 17:36:00,
2013-09-20 12:46:00,64.2,50.0,30.28,SW,225,0.0,3.3,58,0.00,,,0.00,WUHU21636XXSP,2013-09-20 17:46:00,
2013-09-20 12:56:00,64.8,50.5,30.28,WSW,247,0.4,5.1,60,0.00,,,0.00,WUHU21636XXSP,2013-09-20 17:56:00,
2013-09-20 13:06:00,65.7,50.4,30.27,WSW,247,0.0,4.4,58,0.00,,,0.00,WUHU21636XXSP,2013-09-20 18:06:00,
2013-09-20 13:16:00,66.4,50.2,30.27,SW,225,2.9,4.6,56,0.00,,,0.00,WUHU21636XXSP,2013-09-20 18:16:00,
2013-09-20 13:26:00,67.3,52.0,30.27,WSW,247,0.0,3.1,58,0.00,,,0.00,WUHU21636XXSP,2013-09-20 18:26:00,
2013-09-20 13:36:00,67.8,50.9,30.26,WSW,247,3.8,5.1,55,0.00,,,0.00,WUHU21636XXSP,2013-09-20 18:36:00,
2013-09-20 13:46:00,68.7,52.3,30.26,SSW,202,0.0,3.8,57,0.00,,,0.00,WUHU21636XXSP,2013-09-20 18:46:00,
2013-09-20 13:56:00,69.8,55.4,30.25,South,180,4.2,4.2,60,0.00,,,0.00,WUHU21636XXSP,2013-09-20 18:56:00,
2013-09-20 14:06:00,70.9,53.8,30.25,SW,225,3.3,5.8,55,0.00,,,0.00,WUHU21636XXSP,2013-09-20 19:06:00,
2013-09-20 14:16:00,71.8,54.5,30.24,SSE,157,4.2,5.3,55,0.00,,,0.00,WUHU21636XXSP,2013-09-20 19:16:00,
2013-09-20 14:26:00,72.3,54.5,30.24,SE,135,2.0,6.2,54,0.00,,,0.00,WUHU21636XXSP,2013-09-20 19:26:00,
2013-09-20 14:36:00,72.7,53.4,30.24,SE,135,0.0,4.0,51,0.00,,,0.00,WUHU21636XXSP,2013-09-20 19:36:00,
2013-09-20 14:47:00,73.2,53.8,30.23,SSW,202,8.5,11.6,51,0.00,,,0.00,WUHU21636XXSP,2013-09-20 19:47:00,
2013-09-20 14:57:00,74.3,55.4,30.22,South,180,0.0,12.0,50,0.00,,,0.00,WUHU21636XXSP,2013-09-20 19:57:00,
2013-09-20 15:07:00,74.7,52.9,30.22,SSW,202,0.0,8.7,49,0.00,,,0.00,WUHU21636XXSP,2013-09-20 20:07:00,
2013-09-20 15:17:00,75.0,53.2,30.21,SSW,202,0.0,3.1,47,0.00,,,0.00,WUHU21636XXSP,2013-09-20 20:17:00,
2013-09-20 15:27:00,76.1,52.5,30.21,West,270,3.8,7.8,44,0.00,,,0.00,WUHU21636XXSP,2013-09-20 20:27:00,
2013-09-20 15:37:00,76.5,52.2,30.21,WSW,247,3.3,4.4,42,0.00,,,0.00,WUHU21636XXSP,2013-09-20 20:37:00,
2013-09-20 15:47:00,76.8,53.8,30.20,ESE,112,0.4,8.9,45,0.00,,,0.00,WUHU21636XXSP,2013-09-20 20:47:00,
2013-09-20 15:57:00,77.2,51.6,30.20,WSW,247,0.8,9.6,41,0.00,,,0.00,WUHU21636XXSP,2013-09-20 20:57:00,
2013-09-20 16:07:00,77.5,53.1,30.20,SW,225,3.3,3.8,43,0.00,,,0.00,WUHU21636XXSP,2013-09-20 21:07:00,
2013-09-20 16:17:00,77.7,51.4,30.20,SSW,202,3.5,3.5,41,0.00,,,0.00,WUHU21636XXSP,2013-09-20 21:17:00,
2013-09-20 16:27:00,77.9,52.2,30.20,WSW,247,4.0,6.4,41,0.00,,,0.00,WUHU21636XXSP,2013-09-20 21:27:00,
2013-09-20 16:37:00,78.4,52.2,30.20,SSW,202,4.2,6.9,40,0.00,,,0.00,WUHU21636XXSP,2013-09-20 21:37:00,
2013-09-20 16:47:00,78.1,50.2,30.19,WSW,247,1.3,6.7,38,0.00,,,0.00,WUHU21636XXSP,2013-09-20 21:47:00,
2013-09-20 16:57:00,76.8,52.5,30.19,NNW,337,1.1,3.5,42,0.00,,,0.00,WUHU21636XXSP,2013-09-20 21:57:00,
2013-09-20 17:07:00,77.9,52.2,30.19,SSW,202,3.3,7.8,41,0.00,,,0.00,WUHU21636XXSP,2013-09-20 22:07:00,
2013-09-20 17:17:00,78.4,52.2,30.19,SSW,202,0.0,3.3,40,0.00,,,0.00,WUHU21636XXSP,2013-09-20 22:17:00,
2013-09-20 17:27:00,77.7,50.7,30.19,SSW,202,4.4,8.0,39,0.00,,,0.00,WUHU21636XXSP,2013-09-20 22:27:00,
2013-09-20 17:37:00,77.5,51.3,30.18,South,180,4.2,4.4,40,0.00,,,0.00,WUHU21636XXSP,2013-09-20 22:37:00,
2013-09-20 17:47:00,77.5,52.0,30.18,SSE,157,3.1,4.2,41,0.00,,,0.00,WUHU21636XXSP,2013-09-20 22:47:00,
2013-09-20 17:57:00,77.7,51.4,30.18,South,180,4.6,6.0,40,0.00,,,0.00,WUHU21636XXSP,2013-09-20 22:57:00,
2013-09-20 18:07:00,77.9,52.2,30.17,South,180,2.4,6.4,41,0.00,,,0.00,WUHU21636XXSP,2013-09-20 23:07:00,
2013-09-20 18:17:00,77.5,52.0,30.17,SSW,202,5.3,5.3,41,0.00,,,0.00,WUHU21636XXSP,2013-09-20 23:17:00,
2013-09-20 18:27:00,77.4,51.8,30.17,South,180,0.0,5.3,41,0.00,,,0.00,WUHU21636XXSP,2013-09-20 23:27:00,
2013-09-20 18:37:00,76.8,51.3,30.17,South,180,0.0,2.2,41,0.00,,,0.00,WUHU21636XXSP,2013-09-20 23:37:00,
2013-09-20 18:47:00,75.9,51.1,30.16,SSE,157,3.1,3.1,42,0.00,,,0.00,WUHU21636XXSP,2013-09-20 23:47:00,
2013-09-20 18:57:00,75.6,51.4,30.16,SSE,157,1.7,3.1,43,0.00,,,0.00,WUHU21636XXSP,2013-09-20 23:57:00,
2013-09-20 19:07:00,74.8,51.3,30.16,SSE,157,0.8,3.1,44,0.00,,,0.00,WUHU21636XXSP,2013-09-21 00:07:00,
2013-09-20 19:17:00,74.1,50.5,30.16,SSE,157,1.1,3.3,45,0.00,,,0.00,WUHU21636XXSP,2013-09-21 00:17:00,
2013-09-20 19:27:00,73.6,51.3,30.16,SSE,157,1.1,2.0,46,0.00,,,0.00,WUHU21636XXSP,2013-09-21 00:27:00,
2013-09-20 19:37:00,72.7,51.1,30.16,SSE,157,0.0,1.3,47,0.00,,,0.00,WUHU21636XXSP,2013-09-21 00:37:00,
2013-09-20 19:47:00,72.0,51.1,30.16,SSE,157,0.0,2.9,48,0.00,,,0.00,WUHU21636XXSP,2013-09-21 00:47:00,
2013-09-20 19:57:00,71.2,50.9,30.16,SSE,157,3.3,3.3,49,0.00,,,0.00,WUHU21636XXSP,2013-09-21 00:57:00,
2013-09-20 20:07:00,70.3,50.7,30.16,SSE,157,3.1,3.3,50,0.00,,,0.00,WUHU21636XXSP,2013-09-21 01:07:00,
2013-09-20 20:17:00,69.6,50.2,30.16,SSE,157,1.3,3.1,50,0.00,,,0.00,WUHU21636XXSP,2013-09-21 01:17:00,
2013-09-20 20:27:00,69.1,50.2,30.16,SSE,157,3.5,3.8,51,0.00,,,0.00,WUHU21636XXSP,2013-09-21 01:27:00,
2013-09-20 20:37:00,68.4,50.0,30.16,SSE,157,0.0,3.5,52,0.00,,,0.00,WUHU21636XXSP,2013-09-21 01:37:00,
2013-09-20 20:47:00,67.6,50.4,30.16,SE,135,3.5,4.2,54,0.00,,,0.00,WUHU21636XXSP,2013-09-21 01:47:00,
2013-09-20 20:57:00,67.1,49.8,30.16,SSE,157,1.1,3.5,55,0.00,,,0.00,WUHU21636XXSP,2013-09-21 01:57:00,
2013-09-20 21:07:00,66.6,50.4,30.16,SSE,157,2.9,2.9,56,0.00,,,0.00,WUHU21636XXSP,2013-09-21 02:07:00,
2013-09-20 21:17:00,66.0,49.8,30.17,SSE,157,3.1,3.1,56,0.00,,,0.00,WUHU21636XXSP,2013-09-21 02:17:00,
2013-09-20 21:27:00,65.8,49.6,30.17,SSE,157,0.0,3.1,57,0.00,,,0.00,WUHU21636XXSP,2013-09-21 02:27:00,
2013-09-20 21:37:00,65.5,48.7,30.17,SSE,157,2.2,2.2,55,0.00,,,0.00,WUHU21636XXSP,2013-09-21 02:37:00,
2013-09-20 21:47:00,65.3,48.6,30.17,SSE,157,0.0,2.2,55,0.00,,,0.00,WUHU21636XXSP,2013-09-21 02:47:00,
2013-09-20 22:07:00,64.9,48.7,30.17,SSE,157,0.0,0.0,56,0.00,,,0.00,WUHU21636XXSP,2013-09-21 03:07:00,
2013-09-20 22:17:00,64.6,48.7,30.17,SSE,157,0.0,0.0,57,0.00,,,0.00,WUHU21636XXSP,2013-09-21 03:17:00,
2013-09-20 22:27:00,63.9,48.2,30.17,South,180,3.1,5.5,57,0.00,,,0.00,WUHU21636XXSP,2013-09-21 03:27:00,
2013-09-20 22:37:00,63.3,47.7,30.17,South,180,2.0,4.6,57,0.00,,,0.00,WUHU21636XXSP,2013-09-21 03:37:00,
2013-09-20 22:47:00,62.8,48.2,30.18,South,180,0.6,0.8,59,0.00,,,0.00,WUHU21636XXSP,2013-09-21 03:47:00,
2013-09-20 22:54:00,62.1,48.0,30.18,SSW,202,3.3,4.2,60,0.00,,,0.00,WUHU21636XXSP,2013-09-21 03:54:00,
2013-09-20 23:04:00,61.7,48.0,30.18,SSW,202,2.9,3.3,61,0.00,,,0.00,WUHU21636XXSP,2013-09-21 04:04:00,
2013-09-20 23:14:00,61.3,47.8,30.17,SW,225,5.8,5.8,61,0.00,,,0.00,WUHU21636XXSP,2013-09-21 04:14:00,
2013-09-20 23:24:00,60.8,47.3,30.17,SSW,202,4.2,8.5,61,0.00,,,0.00,WUHU21636XXSP,2013-09-21 04:24:00,
2013-09-20 23:37:00,60.6,47.1,30.17,SSW,202,4.0,8.2,61,0.00,,,0.00,WUHU21636XXSP,2013-09-21 04:37:00,
2013-09-20 23:47:00,60.4,46.9,30.17,SSW,202,4.9,9.6,61,0.00,,,0.00,WUHU21636XXSP,2013-09-21 04:47:00,
2013-09-20 23:57:00,60.1,46.9,30.17,SSW,202,5.5,8.9,62,0.00,,,0.00,WUHU21636XXSP,2013-09-21 04:57:00,